User: anonymous   Login
Location: Karcze
(52.0945°N, 22.4786°E)
Time: 00:23:01
(UTC+00:00)
Language:

IRS-1C - Orbit

View from above orbital plane
View from above orbital plane
View from above satellite
View from above satellite

Ground track
Ground track

The orbit data is extracted from the following two-line orbital elements,

1 23751U 95072A   20272.47909882 +.00000004 +00000-0 +22093-4 0  9995
2 23751 098.8287 222.7295 0000963 092.5755 267.5533 14.22633299284659
Epoch (UTC): 28 September 2020 11:29:54
Eccentricity: 0.0000963
inclination: 98.8287°
perigee height: 816 km
apogee height: 817 km
right ascension of ascending node: 222.7295°
argument of perigee: 92.5755°
revolutions per day: 14.22633299
mean anomaly at epoch: 267.5533°
orbit number at epoch: 28465

The dashed part of the orbit path shows where the satellite is in the earth's shadow,  

DLR